TimeCDT,TemperatureF,Dew PointF,Humidity,Sea Level PressureIn,VisibilityMPH,Wind Direction,Wind SpeedMPH,Gust SpeedMPH,PrecipitationIn,Events,Conditions,WindDirDegrees,DateUTC
12:15 AM,59.4,47.8,66,30.09,10.0,Calm,Calm,-,N/A,,Overcast,0,2013-07-03 05:15:00
12:35 AM,59.7,49.1,68,30.08,10.0,Calm,Calm,-,N/A,,Overcast,0,2013-07-03 05:35:00
12:55 AM,59.9,49.6,69,30.08,10.0,North,3.5,-,N/A,,Overcast,10,2013-07-03 05:55:00
1:15 AM,59.9,50.4,71,30.08,10.0,NNE,4.6,-,N/A,,Overcast,20,2013-07-03 06:15:00
1:35 AM,59.4,50.7,73,30.07,10.0,NE,3.5,-,N/A,,Overcast,40,2013-07-03 06:35:00
1:55 AM,59.9,51.6,74,30.07,10.0,Calm,Calm,-,N/A,,Overcast,0,2013-07-03 06:55:00
2:15 AM,59.9,52.0,75,30.07,10.0,Calm,Calm,-,N/A,,Overcast,0,2013-07-03 07:15:00
2:35 AM,59.9,52.5,77,30.07,10.0,NE,3.5,-,N/A,,Overcast,50,2013-07-03 07:35:00
2:55 AM,59.9,52.9,78,30.06,10.0,NNE,3.5,-,N/A,,Overcast,30,2013-07-03 07:55:00
3:15 AM,59.9,53.6,80,30.06,10.0,NE,3.5,-,N/A,,Overcast,40,2013-07-03 08:15:00
3:35 AM,59.9,54.1,81,30.06,10.0,NNE,3.5,-,N/A,,Overcast,30,2013-07-03 08:35:00
3:55 AM,59.9,54.5,82,30.06,10.0,NNE,3.5,-,N/A,,Overcast,30,2013-07-03 08:55:00
4:15 AM,59.9,55.0,84,30.06,10.0,NE,3.5,-,N/A,,Overcast,40,2013-07-03 09:15:00
4:35 AM,59.9,55.2,84,30.06,10.0,NNE,3.5,-,N/A,,Overcast,20,2013-07-03 09:35:00
4:55 AM,59.9,55.6,86,30.06,10.0,Calm,Calm,-,N/A,,Overcast,0,2013-07-03 09:55:00
5:15 AM,60.1,55.8,86,30.06,10.0,NE,3.5,-,N/A,,Overcast,50,2013-07-03 10:15:00
5:35 AM,60.3,56.3,87,30.06,10.0,Calm,Calm,-,N/A,,Overcast,0,2013-07-03 10:35:00
5:55 AM,60.3,56.3,87,30.07,10.0,North,3.5,-,N/A,,Overcast,10,2013-07-03 10:55:00
6:15 AM,60.4,56.3,86,30.07,10.0,North,3.5,-,N/A,,Overcast,360,2013-07-03 11:15:00
6:35 AM,61.3,56.5,84,30.07,10.0,North,5.8,-,N/A,,Mostly Cloudy,360,2013-07-03 11:35:00
6:55 AM,61.5,56.3,83,30.08,10.0,NNE,5.8,-,N/A,,Mostly Cloudy,30,2013-07-03 11:55:00
7:15 AM,62.2,56.5,81,30.08,10.0,ENE,5.8,-,N/A,,Overcast,60,2013-07-03 12:15:00
7:35 AM,62.4,56.7,81,30.08,10.0,NE,3.5,-,N/A,,Overcast,50,2013-07-03 12:35:00
7:55 AM,63.5,56.3,77,30.08,10.0,NE,5.8,-,N/A,,Overcast,40,2013-07-03 12:55:00
8:15 AM,64.6,56.3,74,30.08,10.0,NE,6.9,-,N/A,,Mostly Cloudy,40,2013-07-03 13:15:00
8:35 AM,65.1,55.9,72,30.08,10.0,NE,5.8,-,N/A,,Overcast,40,2013-07-03 13:35:00
8:55 AM,64.9,56.1,73,30.09,10.0,ENE,8.1,-,N/A,,Overcast,70,2013-07-03 13:55:00
9:15 AM,64.9,56.8,75,30.09,10.0,ENE,8.1,-,N/A,,Overcast,60,2013-07-03 14:15:00
9:35 AM,65.8,57.2,74,30.09,10.0,NNE,4.6,-,N/A,,Overcast,30,2013-07-03 14:35:00
9:55 AM,66.6,57.2,72,30.08,10.0,ENE,6.9,-,N/A,,Mostly Cloudy,70,2013-07-03 14:55:00
10:15 AM,67.5,57.7,71,30.08,10.0,ENE,5.8,-,N/A,,Mostly Cloudy,60,2013-07-03 15:15:00
10:35 AM,68.0,57.9,70,30.08,10.0,North,3.5,-,N/A,,Overcast,10,2013-07-03 15:35:00
10:55 AM,68.5,58.5,70,30.08,10.0,North,5.8,-,N/A,,Overcast,350,2013-07-03 15:55:00
11:15 AM,68.0,58.1,71,30.07,10.0,North,3.5,-,N/A,,Overcast,360,2013-07-03 16:15:00
11:35 AM,68.5,59.0,72,30.07,10.0,ENE,5.8,-,N/A,,Overcast,60,2013-07-03 16:35:00
11:55 AM,69.1,59.7,72,30.07,10.0,NE,4.6,-,N/A,,Overcast,40,2013-07-03 16:55:00
12:15 PM,69.8,60.3,72,30.07,10.0,ENE,5.8,-,N/A,,Overcast,60,2013-07-03 17:15:00
12:35 PM,69.4,59.7,71,30.06,10.0,ENE,3.5,-,N/A,,Overcast,60,2013-07-03 17:35:00
12:55 PM,68.5,59.5,73,30.06,10.0,ENE,5.8,-,N/A,,Overcast,70,2013-07-03 17:55:00
1:15 PM,68.7,60.1,74,30.06,10.0,North,5.8,-,N/A,,Overcast,360,2013-07-03 18:15:00
1:35 PM,68.2,60.1,75,30.06,10.0,NNE,4.6,-,N/A,,Overcast,30,2013-07-03 18:35:00
1:55 PM,68.9,60.1,73,30.06,10.0,ENE,5.8,-,N/A,,Overcast,60,2013-07-03 18:55:00
2:15 PM,68.5,60.1,74,30.05,10.0,NNE,3.5,-,N/A,,Overcast,20,2013-07-03 19:15:00
2:35 PM,68.0,61.0,78,30.05,7.0,East,5.8,-,N/A,,Overcast,90,2013-07-03 19:35:00
2:55 PM,67.3,61.0,80,30.05,10.0,ESE,4.6,-,N/A,,Overcast,120,2013-07-03 19:55:00
3:15 PM,66.0,61.2,84,30.06,7.0,Calm,Calm,-,N/A,,Light Drizzle,0,2013-07-03 20:15:00
3:35 PM,66.6,61.0,82,30.05,10.0,Calm,Calm,-,N/A,,Overcast,0,2013-07-03 20:35:00
4:15 PM,66.2,62.1,86,30.04,5.0,Calm,Calm,-,N/A,Rain,Light Rain,0,2013-07-03 21:15:00
4:35 PM,66.2,62.4,88,30.04,5.0,Calm,Calm,-,N/A,,Light Drizzle,0,2013-07-03 21:35:00
4:55 PM,66.2,62.2,87,30.04,7.0,Calm,Calm,-,N/A,,Overcast,0,2013-07-03 21:55:00
5:15 PM,66.7,62.1,85,30.04,10.0,Calm,Calm,-,N/A,,Overcast,0,2013-07-03 22:15:00
5:35 PM,66.7,61.7,84,30.04,10.0,Calm,Calm,-,N/A,,Overcast,0,2013-07-03 22:35:00
5:55 PM,66.7,62.2,85,30.03,7.0,Calm,Calm,-,0.01,Rain,Light Rain,0,2013-07-03 22:55:00
6:15 PM,67.1,62.2,84,30.03,10.0,Calm,Calm,-,N/A,,Overcast,0,2013-07-03 23:15:00
6:35 PM,67.6,62.6,84,30.03,10.0,Calm,Calm,-,N/A,,Overcast,0,2013-07-03 23:35:00
6:55 PM,67.5,62.4,84,30.03,10.0,Calm,Calm,-,N/A,,Overcast,0,2013-07-03 23:55:00
7:15 PM,67.1,62.8,86,30.03,10.0,Calm,Calm,-,N/A,,Overcast,0,2013-07-04 00:15:00
7:35 PM,67.1,62.4,85,30.03,10.0,Calm,Calm,-,N/A,,Overcast,0,2013-07-04 00:35:00
7:55 PM,66.7,62.8,87,30.03,10.0,Calm,Calm,-,N/A,,Overcast,0,2013-07-04 00:55:00
8:15 PM,66.4,63.5,90,30.03,10.0,Calm,Calm,-,N/A,,Overcast,0,2013-07-04 01:15:00
8:35 PM,66.2,63.3,90,30.03,7.0,Calm,Calm,-,N/A,,Overcast,0,2013-07-04 01:35:00
8:55 PM,66.0,63.0,90,30.04,10.0,Calm,Calm,-,N/A,,Overcast,0,2013-07-04 01:55:00
9:15 PM,65.7,63.0,91,30.05,10.0,Calm,Calm,-,N/A,,Overcast,0,2013-07-04 02:15:00
9:35 PM,65.7,63.0,91,30.05,10.0,Calm,Calm,-,N/A,,Overcast,0,2013-07-04 02:35:00
9:55 PM,65.3,62.8,92,30.05,10.0,Calm,Calm,-,N/A,,Overcast,0,2013-07-04 02:55:00
10:15 PM,65.3,62.8,92,30.05,10.0,Calm,Calm,-,N/A,,Overcast,0,2013-07-04 03:15:00
10:35 PM,65.3,63.0,92,30.05,10.0,SE,3.5,-,N/A,,Overcast,140,2013-07-04 03:35:00
10:55 PM,64.9,63.1,94,30.05,10.0,SSE,3.5,-,N/A,,Overcast,150,2013-07-04 03:55:00
11:15 PM,65.3,63.1,93,30.05,10.0,SSE,3.5,-,N/A,,Overcast,150,2013-07-04 04:15:00
11:35 PM,64.9,63.0,93,30.05,7.0,Calm,Calm,-,N/A,,Overcast,0,2013-07-04 04:35:00
11:55 PM,63.9,62.6,96,30.05,7.0,South,3.5,-,N/A,,Scattered Clouds,180,2013-07-04 04:55:00